www.pogodaiklimat.ru

Погода и климат >> Архив погоды >> Индия >> Bhuj-Rudramata


ПОГОДА в Bhuj-Rudramata

  • Прогноз погоды в Bhuj-Rudramata
  • Монитор погоды в Bhuj-Rudramata
  • Климат города

АРХИВ ПОГОДЫ в Bhuj-Rudramata

Время (UTC), дата Ветер
(напр.,м/с)
 
Видим.   Явления Облачность Т
(С)
Тd
(С)
f
(%)
Тe
(С)
Тes
(С)
Комфортность P
(гПа)
Po
(гПа)
Тmin
(С)
Tmax
(С)
R
(мм)
S
(см)
00 19.03 штиль 0 4000 м ясно +22.0 +18.5 81 +27 +27 душно 1009.9 1010.0
03 19.03 штиль 0 4000 м ясно +23.6 +21.5 88 +30 +35 очень
душно
1012.1 1012.0 +21.4
06 19.03 ЮЗ 3 4000 м ясно +29.4 +21.4 62 +37 +51 опасность
солнечного
удара
1013.7 1014.0
09 19.03 С 2 4000 м ясно +33.8 +18.9 41 +39 +55 опасность
солнечного
удара
1010.9 1011.0
12 19.03 С 2 4000 м ясно +35.2 +11.2 23 +35 +37 очень
жарко
1009.9 1010.0 +36.0
15 19.03 штиль 0 4000 м ясно +30.6 +13.7 36 +32 +32 жарко 1010.8 1011.0
18 19.03 штиль 0 4000 м ясно +25.6 +21.4 78 +33 +33 очень
душно
1012.7 1013.0
21 19.03 штиль 0 4000 м ясно +23.6 +21.5 88 +30 +30 очень
душно
1012.2 1012.0
00 20.03 штиль 0 4000 м ясно +22.4 +20.6 90 +29 +29 очень
душно
1011.6 1012.0
03 20.03 штиль 0 4000 м ясно +23.8 +17.4 67 +28 +32 душно 1013.8 1014.0 +21.0
06 20.03 штиль 0 4000 м ясно +33.4 +15.5 34 +35 +58 опасность
солнечного
удара
1013.6 1014.0
09 20.03 С 2 4000 м ясно +36.8 +12.4 23 +37 +53 опасность
солнечного
удара
1011.0 1011.0
12 20.03 З 2 4000 м ясно +35.4 +15.4 30 +37 +40 очень
душно
1009.6 1010.0 +38.8
15 20.03 штиль 0 4000 м ясно +30.0 +13.3 36 +31 +31 жарко 1011.2 1011.0
18 20.03 З 2 4000 м ясно +27.6 +11.2 36 +28 +28 жарко 1012.1 1012.0
21 20.03 штиль 0 4000 м ясно +25.8 +11.9 42 +27 +27 жарко 1011.5 1012.0
00 21.03 штиль 0 4000 м ясно +24.0 +10.7 43 +25 +25 комфорт 1011.4 1011.0
03 21.03 штиль 0 4000 м ясно +25.0 +10.9 41 +32 +37 очень
душно
1013.6 1014.0 +21.7
06 21.03 штиль 0 4000 м ясно +33.6 +13.6 30 +35 +57 опасность
солнечного
удара
1014.4 1014.0
09 21.03 СВ 2 4000 м ясно +37.4 +19.8 36 +43 +60 опасность
перегрева
1011.6 1012.0
12 21.03 ЮЗ 2 4000 м ясно +37.0 +12.2 23 +37 +39 очень
жарко
1010.3 1010.0 +38.4
15 21.03 ЮЗ 2 4000 м ясно +30.6 +17.0 44 +34 +34 очень
душно
1012.1 1012.0
18 21.03 ЮЗ 2 4000 м ясно +27.0 +19.3 63 +33 +33 очень
душно
1013.6 1014.0
21 21.03 ЮЗ 2 4000 м ясно +25.4 +20.2 73 +31 +31 очень
душно
1012.8 1013.0
00 22.03 штиль 0 4000 м ясно +24.4 +20.7 80 +30 +30 очень
душно
1012.6 1013.0
03 22.03 ЮЗ 2 4000 м 4/4 600 м
[Sc]
+23.0 +21.5 91 +31 +33 очень
душно
1014.2 1014.0 +21.0
06 22.03 штиль 0 4000 м ясно +30.4 +21.8 60 +39 +62 опасность
солнечного
удара
1014.4 1014.0
09 22.03 штиль 0 4000 м ясно +35.6 +21.6 44 +43 +65 опасность
перегрева
1010.9 1011.0
12 22.03 ЮЗ 2 4000 м 1/0
[Ac trans]
+35.4 +22.0 46 +44 +46 опасность
перегрева
1009.1 1009.0 +36.7
15 22.03 штиль 0 4000 м ясно +28.0 +20.4 63 +34 +34 очень
душно
1011.0 1011.0
18 22.03 ЮЗ 2 4000 м ясно +23.6 +21.8 90 +30 +30 очень
душно
1013.2 1013.0
21 22.03 штиль 0 4000 м ясно +22.2 +20.7 91 +29 +29 очень
душно
1012.1 1012.0
00 23.03 штиль 0 4000 м ясно +21.6 +20.4 93 +27 +27 душно 1010.7 1011.0
03 23.03 штиль 0 4000 м ясно +23.2 +21.7 91 +31 +36 очень
душно
1012.7 1013.0 +20.0
06 23.03 СЗ 3 4000 м ясно +31.6 +21.9 56 +40 +54 опасность
солнечного
удара
1013.2 1013.0
09 23.03 СВ 2 4000 м ясно +36.2 +21.2 42 +44 +61 опасность
перегрева
1010.6 1011.0
12 23.03 СЗ 2 4000 м ясно +37.6 +20.4 37 +37 +39 очень
жарко
1008.6 1009.0 +38.0
15 23.03 СЗ 2 4000 м ясно +31.0 +18.7 48 +36 +36 очень
душно
1009.7 1010.0
18 23.03 ЮЗ 2 4000 м ясно +26.4 +15.6 51 +29 +29 жарко 1012.0 1012.0
21 23.03 ЮЗ 1 4000 м ясно +24.6 +16.9 62 +28 +28 душно 1011.0 1011.0
00 24.03 штиль 0 4000 м ясно +23.8 +17.0 66 +28 +28 душно 1010.2 1010.0
03 24.03 З 1 4000 м ясно +23.6 +17.5 69 +28 +32 душно 1012.7 1013.0 +20.4
06 24.03 штиль 0 4000 м 3/3 600 м
[Sc]
+31.6 +21.6 55 +40 +56 опасность
солнечного
удара
1012.7 1013.0
09 24.03 ЮЗ 2 4000 м 4/4 600 м
[Sc]
+36.4 +24.2 50 +48 +59 опасность
перегрева
1010.2 1010.0
12 24.03 ЮЗ 2 4000 м ясно +36.4 +20.0 38 +36 +39 очень
жарко
1008.5 1009.0 +37.6
15 24.03 ЮЗ 2 4000 м ясно +28.8 +14.8 42 +31 +31 жарко 1011.3 1011.0
18 24.03 ЮЗ 2 4000 м ясно +23.4 +14.6 58 +27 +27 душно 1012.3 1012.0
21 24.03 ЮЗ 2 4000 м ясно +22.4 +14.2 60 +26 +26 жарко 1011.6 1012.0
00 25.03 ЮЗ 2 4000 м ясно +21.0 +14.9 68 +25 +25 комфорт 1011.6 1012.0
03 25.03 штиль 0 4000 м ясно +22.8 +20.0 84 +29 +34 очень
душно
1013.1 1013.0 +19.7
06 25.03 штиль 0 4000 м ясно +32.4 +15.8 37 +35 +58 опасность
солнечного
удара
1013.3 1013.0
09 25.03 СЗ 2 4000 м ясно +37.4 +12.2 22 +37 +53 опасность
солнечного
удара
1009.7 1010.0
12 25.03 ЮЗ 1 4000 м ясно +39.0 +13.0 21 +39 +42 очень
жарко
1008.0 1008.0 +39.6
15 25.03 ЮЗ 2 4000 м ясно +31.0 +18.3 47 +36 +36 очень
душно
1010.2 1010.0
18 25.03 ЮЗ 2 4000 м ясно +27.4 +17.2 54 +31 +31 душно 1011.9 1012.0
21 25.03 СЗ 2 4000 м ясно +25.4 +16.3 57 +29 +29 душно 1011.4 1011.0

 

Местоположение метеостанции Bhuj-Rudramata (Gujarat, Индия): широта 23.25 долгота 69.67 высота над уровнем моря 80 м.

В архиве по умолчанию представлена погода в Bhuj-Rudramata за последнюю неделю. Архивные данные за месяц целиком и за предыдущие месяцы, начиная с января 2011 года, Вы можете получить, выбрав интересующий диапазон дат из раскрывающегося списка и нажав кнопку "Ввод!".

Внимание! Время в таблицах - всемирное. Для получения местного времени необходимо прибавить поправку, которая в Bhuj-Rudramata равна 5.5 ч.

Смотрите также архив погоды в соседних городах и на ближайших метеорологических станциях:

Погода в Kandla (Gujarat, Индия) (47 км)
Погода в New Kandla (Gujarat, Индия) (63 км)
Погода в Mandvi (Gujarat, Индия) (63 км)
Погода в Naliya (Gujarat, Индия) (84 км)
Погода в Okha (Gujarat, Индия) (103 км)
Погода в Dwarka (Gujarat, Индия) (115 км)
Погода в Rajkot (Gujarat, Индия) (155 км)
Погода в Badin (Пакистан) (172 км)
Погода в Porbandar (Gujarat, Индия) (178 км)
Погода в Surendranagar (Gujarat, Индия) (206 км)

Пояснения к столбцам:

Ветер - указаны скорость ветра в м/с - средняя за 10 мин, порывы в срок и между сроками (в фигурных скобках) и направление, откуда дует ветер: С - северный, СВ - северо-восточный, В - восточный, ЮВ - юго-восточный, Ю - южный, ЮЗ - юго-западный, З - западный, СЗ - северо-западный.
Видимость - горизонтальная дальность видимости в метрах или километрах. При видимости от 1 до 10 км при отсутствии осадков обычно наблюдается дымка, при ухудшении видимости до 1 км и менее - туман. В сухую погоду видимость может ухудшаться дымом, пылью или мглою.
Явления - указаны атмосферные явления, наблюдавшиеся в срок или в последний час перед сроком; фигурными скобками обозначены явления, наблюдавшиеся между сроками (за 1-3 часа до срока); квадратными скобками обозначены град или гололедные отложения с указанием их диаметра в мм.
Облачность - указаны через наклонную черту общая и нижняя облачность в баллах и высота нижней границы облаков в метрах; квадратными скобками обозначены формы облаков: Ci - перистые, Cs - перисто-слоистые, Cc - перисто-кучевые, Ac - высококучевые, As - высокослоистые, Sc - слоисто-кучевые, Ns - слоисто-дождевые, Cu - кучевые, Cb - кучево-дождевые. Подробнее классификацию облаков см. в Атласе облаков (PDF).
T - Температура воздуха - температура, измеренная на высоте 2 м над землей.
Td - Температура точки росы - температура, при понижении до которой содержащийся в воздухе водяной пар достигнет насыщения.
f - Относительная влажность воздуха - влажноcть воздуха, измеренная на высоте 2 м над землей.
Te - Эффективная температура - температура, которую ощущает одетый по сезону человек в тени. Характеристика душности погоды. При расчете учитывается влияние влажности воздуха и скорости ветра на теплоощущения человека.
Tes - Эффективная температура на солнце - температура, которую ощущает человек, с поправкой на солнечный нагрев. Характеристика знойности погоды. Зависит от высоты солнца над горизонтом, облачности и скорости ветра. Ночью, в пасмурную погоду, а также при ветре 12 м/с и более поправка равна нулю.
P - Атмосферное давление - приведенное к уровню моря атмосферное давление.
Po - Атмосферное давление - измеренное на уровне метеостанции атмосферное давление.
Tmin - Минимальная температура - минимум температуры воздуха на высоте 2 м над землей.
Tmax - Максимальная температура - максимум температуры воздуха на высоте 2 м над землей.
R - Количество осадков - Количество выпавших осадков, мм. При наведении курсора мыши на число - период времени, за который выпало указанное количество осадков.
S - Снежный покров - Высота снежного покрова, см. При наведении курсора мыши на число - состояние снежного покрова и степень покрытия местности в баллах.